Waarnemingen

Advertentie
Mijn weer
Baltasound, Groot Brittannië (3002): temperatuur & dauwpunt: 29.06.2020 04:00:00 - 05.07.2020 04:00:00 (BST)Baltasound, Groot Brittannië (3002): temperatuur -20cm: 29.06.2020 04:00:00 - 05.07.2020 04:00:00 (BST)Baltasound, Groot Brittannië (3002): windsnelheid & windstoten: 29.06.2020 04:00:00 - 05.07.2020 04:00:00 (BST)Baltasound, Groot Brittannië (3002): windrichting: 29.06.2020 04:00:00 - 05.07.2020 04:00:00 (BST)Baltasound, Groot Brittannië (3002): luchtdruk: 29.06.2020 04:00:00 - 05.07.2020 04:00:00 (BST)Baltasound, Groot Brittannië (3002): zicht: 29.06.2020 04:00:00 - 05.07.2020 04:00:00 (BST)Baltasound, Groot Brittannië (3002): neerslag: 29.06.2020 04:00:00 - 05.07.2020 04:00:00 (BST)
Datum & Tijd tt [°C] td [°C] tt -20cm [°C] ff [km/u] ff [kn] fx [km/u] fx [kn] dd ppp [hPa] vv [km] rr [mm]
05.07.2020 04:00:00 - - - - - - - - - - -
05.07.2020 03:00:00 9,8 9,5 - 15 8 - - ZO 993,5 7 0,0
05.07.2020 02:00:00 9,9 9,5 - 9 5 - - OZO 994,5 15 0,0
05.07.2020 01:00:00 9,6 9,0 - 16 9 - - ZZO 996,0 5 0,0
05.07.2020 00:00:00 10,0 9,4 - 13 7 - - Z 996,6 28 0,0
04.07.2020 23:00:00 10,5 9,7 - 13 7 - - ZZO 997,3 24 0,0
04.07.2020 22:00:00 10,5 9,5 - 9 5 - - ZO 998,1 40 0,0
04.07.2020 21:00:00 10,7 9,6 - 9 5 - - ZZO 998,8 45 0,0
04.07.2020 20:00:00 10,9 9,7 - 9 5 - - ZZO 999,2 45 0,0
04.07.2020 19:00:00 11,4 9,9 - 8 4 - - ZO 999,9 35 0,0
04.07.2020 18:00:00 11,5 10,3 - 2 1 - - NNO 1000,4 35 0,0
04.07.2020 17:00:00 11,1 10,4 - 13 7 - - ZZO 1000,7 9 0,0
04.07.2020 16:00:00 11,0 10,2 - 15 8 - - ZO 1001,2 40 0,0
04.07.2020 15:00:00 10,7 9,9 - 22 12 - - ZO 1001,5 10 0,0
04.07.2020 14:00:00 11,3 10,1 - 13 7 - - ZZO 1001,7 16 0,0
04.07.2020 13:00:00 11,8 9,2 - 22 12 - - OZO 1001,9 29 0,0
04.07.2020 12:00:00 11,9 7,7 - 21 11 - - OZO 1002,3 45 0,0
04.07.2020 11:00:00 11,9 7,7 - 21 11 - - OZO 1002,3 35 0,0
04.07.2020 10:00:00 11,5 7,3 13,5 21 11 - - OZO 1002,2 45 0,0
04.07.2020 09:00:00 11,3 7,0 - 22 12 - - ZO 1002,5 45 0,0
04.07.2020 08:00:00 11,2 6,7 - 16 9 - - OZO 1002,8 50 0,0
04.07.2020 07:00:00 11,2 6,9 - 15 8 - - O 1002,6 40 0,0
04.07.2020 06:00:00 10,8 7,1 - 15 8 - - O 1002,8 50 0,0
04.07.2020 05:00:00 10,7 6,7 - 15 8 - - O 1002,9 50 0,0
04.07.2020 04:00:00 10,2 7,1 - 13 7 - - O 1002,9 45 0,0
04.07.2020 03:00:00 9,6 6,8 - 13 7 - - O 1003,0 50 0,0
04.07.2020 02:00:00 8,7 5,8 - 9 5 - - O 1003,3 50 0,0
04.07.2020 01:00:00 9,0 5,7 - 13 7 - - O 1003,2 50 0,0
04.07.2020 00:00:00 8,7 6,3 - 9 5 - - ONO 1003,2 50 0,0
03.07.2020 23:00:00 8,6 5,2 - 9 5 - - O 1003,3 50 0,0
03.07.2020 22:00:00 10,5 5,5 - 9 5 - - O 1003,4 50 0,0
03.07.2020 21:00:00 11,5 5,4 - 13 7 - - O 1003,7 45 0,0
03.07.2020 20:00:00 11,7 5,4 - 11 6 - - O 1003,8 40 0,0
03.07.2020 19:00:00 11,2 4,9 - 13 7 - - OZO 1003,9 45 0,0
03.07.2020 18:00:00 11,6 5,1 - 13 7 - - OZO 1003,8 50 0,0
03.07.2020 17:00:00 11,7 5,4 - 15 8 - - O 1003,9 27 0,0
03.07.2020 16:00:00 11,3 5,1 - 15 8 - - OZO 1004,2 30 0,0
03.07.2020 15:00:00 11,8 5,5 - 15 8 - - OZO 1004,4 50 0,0
03.07.2020 14:00:00 11,9 5,7 - 15 8 - - OZO 1004,3 23 0,0
03.07.2020 13:00:00 12,0 6,8 - 13 7 - - OZO 1004,2 28 0,0
03.07.2020 12:00:00 10,5 5,1 - 11 6 - - O 1004,4 50 0,0
03.07.2020 11:00:00 10,9 5,6 - 13 7 - - ONO 1004,3 40 0,0
03.07.2020 10:00:00 11,4 4,8 13,4 9 5 - - N 1004,4 35 0,0
03.07.2020 09:00:00 10,7 4,9 - 11 6 - - WNW 1004,5 50 0,0
03.07.2020 08:00:00 10,1 5,1 - 11 6 - - W 1004,4 45 0,0
03.07.2020 07:00:00 8,7 5,9 - 4 2 - - Z 1004,8 45 0,0
03.07.2020 06:00:00 7,8 5,8 - 4 2 - - ZZW 1004,7 40 0,0
03.07.2020 05:00:00 8,4 5,4 - 9 5 - - WZW 1004,7 40 0,0
03.07.2020 04:00:00 7,6 4,4 - 11 6 - - W 1004,9 50 0,0
03.07.2020 03:00:00 7,8 4,9 - 13 7 - - W 1005,2 50 0,0
03.07.2020 02:00:00 7,8 4,5 - 16 9 - - WNW 1005,3 45 0,0
03.07.2020 01:00:00 7,3 4,6 - 15 8 - - WNW 1005,4 50 0,0
03.07.2020 00:00:00 7,1 4,7 - 21 11 - - W 1005,5 50 0,0
02.07.2020 23:00:00 7,8 4,4 - 24 13 - - WNW 1005,5 45 0,0
02.07.2020 22:00:00 7,4 5,4 - 22 12 - - WNW 1005,7 15 0,0
02.07.2020 21:00:00 8,3 6,3 - 11 6 - - WNW 1005,5 35 0,0
02.07.2020 20:00:00 8,6 7,0 - 11 6 - - W 1005,3 40 0,0
02.07.2020 19:00:00 8,4 7,0 - 22 12 - - WNW 1005,4 19 0,0
02.07.2020 18:00:00 8,7 7,1 - 24 13 46 25 WNW 1005,3 11 0,0
02.07.2020 17:00:00 10,0 8,1 - 28 15 - - W 1005,3 30 0,0
02.07.2020 16:00:00 9,5 7,7 - 22 12 - - WZW 1005,9 12 0,0
02.07.2020 15:00:00 10,7 4,7 - 28 15 - - W 1006,0 20 0,0
02.07.2020 14:00:00 11,2 7,0 - 22 12 - - W 1006,0 40 0,0
02.07.2020 13:00:00 10,4 5,6 - 24 13 - - W 1006,2 30 0,0
02.07.2020 12:00:00 10,3 5,3 - 26 14 - - W 1006,2 45 0,0
02.07.2020 11:00:00 10,7 4,4 - 26 14 - - WNW 1006,3 50 0,0
02.07.2020 10:00:00 9,4 4,1 13,9 26 14 - - WNW 1006,1 29 0,0
02.07.2020 09:00:00 8,6 4,8 - 26 14 - - WNW 1005,8 40 0,0
02.07.2020 08:00:00 7,6 3,9 - 26 14 - - W 1005,8 4,1 0,0
02.07.2020 07:00:00 7,8 5,4 - 9 5 - - WNW 1005,6 40 0,0
02.07.2020 06:00:00 8,4 4,5 - 21 11 - - WNW 1005,5 35 0,0
02.07.2020 05:00:00 6,6 4,2 - 15 8 - - WNW 1005,6 50 0,0
02.07.2020 04:00:00 6,6 3,5 - 18 10 - - NW 1005,8 50 0,0
02.07.2020 03:00:00 6,8 2,9 - 18 10 - - WNW 1005,9 50 0,0
02.07.2020 02:00:00 6,9 3,8 - 18 10 - - WNW 1006,0 50 0,0
02.07.2020 01:00:00 6,6 3,5 - 18 10 - - WNW 1006,2 50 0,0
02.07.2020 00:00:00 6,2 3,1 - 15 8 - - WNW 1006,5 50 0,0
01.07.2020 23:00:00 7,7 3,4 - 16 9 - - WNW 1006,4 50 0,0
01.07.2020 22:00:00 7,5 3,5 - 15 8 - - NW 1006,2 50 0,0
01.07.2020 21:00:00 8,1 4,6 - 21 11 - - WNW 1006,2 40 0,0
01.07.2020 20:00:00 9,5 4,3 - 24 13 - - NW 1006,1 50 0,0
01.07.2020 19:00:00 10,2 6,0 - 22 12 - - NNW 1006,1 40 0,0
01.07.2020 18:00:00 9,9 4,0 - 22 12 - - NNW 1006,2 50 0,0
01.07.2020 17:00:00 10,5 3,7 - 24 13 - - NW 1006,0 35 0,0
01.07.2020 16:00:00 11,2 4,7 - 24 13 - - NNW 1005,9 45 0,0
01.07.2020 15:00:00 11,7 6,2 - 26 14 - - N 1005,6 45 0,0
01.07.2020 14:00:00 10,7 5,2 - 26 14 - - N 1005,4 45 0,0
01.07.2020 13:00:00 10,4 5,3 - 28 15 - - N 1005,3 30 0,0
01.07.2020 12:00:00 11,5 7,0 - 26 14 - - N 1005,0 30 0,0
01.07.2020 11:00:00 9,5 5,9 - 26 14 - - N 1004,7 13 0,0
01.07.2020 10:00:00 11,5 5,7 14,2 24 13 - - N 1004,5 40 0,0
01.07.2020 09:00:00 10,0 5,3 - 26 14 - - N 1004,3 29 0,0
01.07.2020 08:00:00 10,1 6,2 - 28 15 - - N 1004,0 27 0,0
01.07.2020 07:00:00 9,3 6,1 - 16 9 - - N 1003,8 23 0,0
01.07.2020 06:00:00 9,3 5,7 - 24 13 - - N 1003,5 30 0,0
01.07.2020 05:00:00 8,4 4,5 - 16 9 - - N 1003,4 35 0,0
01.07.2020 04:00:00 8,8 6,2 - 24 13 - - NNO 1003,4 15 0,0
01.07.2020 03:00:00 8,3 4,7 - 18 10 - - N 1003,4 27 0,0
01.07.2020 02:00:00 8,6 4,8 - 22 12 - - N 1003,3 30 0,0
01.07.2020 01:00:00 9,7 5,4 - 26 14 - - NNO 1003,4 23 0,0
01.07.2020 00:00:00 10,0 6,0 - 22 12 - - NNO 1003,2 21 0,0
30.06.2020 23:00:00 10,2 6,2 - 26 14 - - NNO 1002,8 17 0,0
30.06.2020 22:00:00 10,1 7,2 - 28 15 - - NNO 1002,2 11 0,0
30.06.2020 21:00:00 10,2 8,5 - 29 16 55 30 NO 1001,4 14 0,0
30.06.2020 20:00:00 10,1 9,0 - 37 20 52 28 NNO 1000,8 16 0,0
30.06.2020 19:00:00 10,5 9,9 - 41 22 55 30 NO 1000,2 3,8 0,0
30.06.2020 18:00:00 11,6 10,5 - 35 19 50 27 NO 999,2 6 0,0
30.06.2020 17:00:00 12,3 10,8 - 16 9 - - ONO 998,5 35 0,0
30.06.2020 16:00:00 11,9 10,6 - 22 12 - - ONO 998,1 5 0,0
30.06.2020 15:00:00 13,6 11,1 - 8 4 - - W 997,3 40 0,0
30.06.2020 14:00:00 14,3 11,3 - 28 15 - - W 997,1 18 0,0
30.06.2020 13:00:00 13,3 9,9 - 28 15 - - WNW 997,4 27 0,0
30.06.2020 12:00:00 14,1 10,8 - 28 15 - - NW 997,6 20 0,0
30.06.2020 11:00:00 13,8 10,9 - 26 14 - - WNW 997,8 30 0,0
30.06.2020 10:00:00 14,1 11,5 14,7 26 14 - - NW 998,0 35 0,0
30.06.2020 09:00:00 13,4 11,6 - 21 11 - - NNW 998,0 35 0,0
30.06.2020 08:00:00 13,5 11,7 - 15 8 - - NNW 998,0 23 0,0
30.06.2020 07:00:00 13,2 12,0 - 16 9 - - N 997,9 28 0,0
30.06.2020 06:00:00 12,8 11,9 - 21 11 - - NNO 997,8 21 0,0
30.06.2020 05:00:00 12,8 12,1 - 18 10 - - N 997,8 19 0,0
30.06.2020 04:00:00 12,8 11,8 - 11 6 - - NNO 997,8 12 0,0
30.06.2020 03:00:00 12,9 11,2 - 13 7 - - NNO 997,8 20 0,0
30.06.2020 02:00:00 13,3 10,8 - 22 12 - - NO 997,9 30 0,0
30.06.2020 01:00:00 13,3 10,6 - 24 13 - - NO 997,9 35 0,0
30.06.2020 00:00:00 12,7 11,1 - 24 13 - - NO 998,1 22 0,0
29.06.2020 23:00:00 12,3 11,3 - 26 14 - - NO 998,2 15 0,0
29.06.2020 22:00:00 12,4 11,2 - 26 14 - - ONO 998,1 13 0,0
29.06.2020 21:00:00 12,6 11,0 - 21 11 - - ONO 998,0 14 0,0
29.06.2020 20:00:00 13,2 11,4 - 22 12 - - ONO 997,9 13 0,0
29.06.2020 19:00:00 13,8 11,8 - 22 12 - - ONO 997,9 11 0,0
29.06.2020 18:00:00 13,8 11,6 - 24 13 - - ONO 998,1 14 0,0
29.06.2020 17:00:00 14,7 11,9 - 26 14 - - O 998,1 13 0,0
29.06.2020 16:00:00 15,3 12,2 - 28 15 - - O 998,0 12 0,0
29.06.2020 15:00:00 15,1 12,6 - 29 16 - - O 998,1 11 0,0
29.06.2020 14:00:00 15,0 12,3 - 29 16 - - O 998,0 20 0,0
29.06.2020 13:00:00 14,3 11,6 - 29 16 - - O 997,9 12 0,0
29.06.2020 12:00:00 14,8 12,1 - 28 15 - - O 998,0 10 0,0
29.06.2020 11:00:00 14,2 12,1 - 29 16 - - O 997,7 14 0,0
29.06.2020 10:00:00 14,0 12,8 14,5 28 15 - - O 997,5 9 0,0
29.06.2020 09:00:00 12,6 11,8 - 21 11 - - OZO 997,4 11 0,0
29.06.2020 08:00:00 12,3 11,9 - 21 11 - - OZO 996,7 12 0,0
29.06.2020 07:00:00 12,3 11,9 - 28 15 - - OZO 996,3 4,1 0,0
29.06.2020 06:00:00 12,3 11,7 - 24 13 - - OZO 996,2 8 0,0
29.06.2020 05:00:00 12,1 11,4 - 22 12 - - OZO 996,2 4,6 0,0
29.06.2020 04:00:00 12,0 11,5 - 24 13 - - OZO 996,3 2,7 0,0

tt = temperatuur
td = dauwpunt
tt -20cm = temperatuur -20cm
ff = windsnelheid
fx = windstoten
dd = windrichting
ppp = luchtdruk
vv = zicht
rr = neerslag

Weerstations in de omgeving